When you browse on this site, cookies collect data to enhance your experience and personalize the content and advertising you see.
Visit our Privacy Policy to learn more. By continuing to use the site, you agree to this use of cookies and data.
  • In United Kingdom
  • List of Countries
  • For 7 days
  • Water Temperature
  • Weather Map
  • Weather Widgets
  • user-avatar
    Login

    Hourly Weather Atlantic City

    Today, 21 August, Wednesday

    Time Temperature Precipitation Wind Pressure Humidity
    00:00 +25°C° 0 mm 1 mps 761 mmHg 94%
    01:00 +25°C° 0 mm 1 mps 761 mmHg 95%
    02:00 +25°C° 0 mm 1 mps 761 mmHg 94%
    03:00 +25°C° 0 mm 2 mps 760 mmHg 93%
    04:00 +25°C° 0 mm 2 mps 760 mmHg 93%
    05:00 +26°C° 0.4 mm 2 mps 760 mmHg 91%
    06:00 +26°C° 0.4 mm 3 mps 760 mmHg 90%
    07:00 +27°C° 0.4 mm 4 mps 760 mmHg 89%
    08:00 +29°C° 0 mm 5 mps 760 mmHg 80%
    09:00 +30°C° 0 mm 5 mps 760 mmHg 71%
    10:00 +33°C° 0 mm 6 mps 760 mmHg 62%
    11:00 +33°C° 0 mm 6 mps 760 mmHg 60%
    12:00 +34°C° 0 mm 6 mps 759 mmHg 58%
    13:00 +34°C° 0 mm 6 mps 759 mmHg 56%
    14:00 +34°C° 0 mm 7 mps 759 mmHg 57%
    15:00 +33°C° 0 mm 7 mps 758 mmHg 58%
    16:00 +33°C° 0 mm 8 mps 758 mmHg 59%
    17:00 +32°C° 0 mm 8 mps 758 mmHg 65%
    18:00 +31°C° 0 mm 8 mps 758 mmHg 71%
    19:00 +28°C° 0 mm 8 mps 758 mmHg 76%
    20:00 +28°C° 0.4 mm 7 mps 758 mmHg 81%
    21:00 +27°C° 0.4 mm 6 mps 758 mmHg 85%
    22:00 +26°C° 0.4 mm 5 mps 758 mmHg 90%
    23:00 +26°C° 0.7 mm 5 mps 758 mmHg 92%

    Tomorrow, 22 August, Thursday

    Time Temperature Precipitation Wind Pressure Humidity
    00:00 +26°C° 0.7 mm 5 mps 758 mmHg 93%
    01:00 +26°C° 0.7 mm 5 mps 758 mmHg 95%
    02:00 +25°C° 0 mm 5 mps 757 mmHg 95%
    03:00 +25°C° 0 mm 5 mps 757 mmHg 96%
    04:00 +25°C° 0 mm 4 mps 757 mmHg 97%
    05:00 +25°C° 0 mm 4 mps 758 mmHg 94%
    06:00 +26°C° 0 mm 4 mps 758 mmHg 91%
    07:00 +26°C° 0 mm 4 mps 758 mmHg 89%
    08:00 +28°C° 0 mm 3 mps 759 mmHg 80%
    09:00 +30°C° 0 mm 3 mps 759 mmHg 70%
    10:00 +33°C° 0 mm 3 mps 759 mmHg 61%
    11:00 +33°C° 0 mm 4 mps 759 mmHg 56%
    12:00 +34°C° 0 mm 4 mps 759 mmHg 51%
    13:00 +35°C° 0 mm 5 mps 759 mmHg 45%
    14:00 +35°C° 0 mm 5 mps 758 mmHg 48%
    15:00 +34°C° 0 mm 5 mps 758 mmHg 50%
    16:00 +34°C° 0 mm 6 mps 758 mmHg 52%
    17:00 +32°C° 0 mm 5 mps 758 mmHg 62%
    18:00 +30°C° 0 mm 4 mps 758 mmHg 71%
    19:00 +28°C° 0 mm 4 mps 758 mmHg 81%
    20:00 +28°C° 0.1 mm 4 mps 759 mmHg 83%
    21:00 +27°C° 0.1 mm 4 mps 759 mmHg 85%
    22:00 +27°C° 0.1 mm 4 mps 759 mmHg 87%
    23:00 +26°C° 0.6 mm 4 mps 759 mmHg 89%

    Day after tomorrow, 23 August, Friday

    Time Temperature Precipitation Wind Pressure Humidity
    00:00 +26°C° 0.6 mm 4 mps 759 mmHg 91%
    01:00 +25°C° 0.6 mm 4 mps 759 mmHg 92%
    02:00 +25°C° 0 mm 3 mps 758 mmHg 93%
    03:00 +25°C° 0 mm 3 mps 758 mmHg 94%
    04:00 +25°C° 0 mm 2 mps 758 mmHg 95%
    05:00 +25°C° 0 mm 2 mps 759 mmHg 93%
    06:00 +25°C° 0 mm 2 mps 759 mmHg 92%
    07:00 +26°C° 0 mm 1 mps 760 mmHg 90%
    08:00 +26°C° 0 mm 2 mps 760 mmHg 85%
    09:00 +27°C° 0 mm 2 mps 760 mmHg 80%
    10:00 +27°C° 0 mm 2 mps 761 mmHg 75%
    11:00 +26°C° 0 mm 2 mps 761 mmHg 74%
    12:00 +26°C° 0 mm 3 mps 761 mmHg 72%
    13:00 +25°C° 0 mm 4 mps 761 mmHg 71%
    14:00 +24°C° 0 mm 3 mps 761 mmHg 72%
    15:00 +24°C° 0 mm 3 mps 760 mmHg 73%
    16:00 +23°C° 0 mm 2 mps 760 mmHg 74%
    17:00 +23°C° 0 mm 2 mps 760 mmHg 75%
    18:00 +23°C° 0 mm 2 mps 761 mmHg 76%
    19:00 +21°C° 0 mm 2 mps 761 mmHg 77%
    20:00 +21°C° 0 mm 2 mps 761 mmHg 78%
    21:00 +20°C° 0 mm 3 mps 761 mmHg 78%
    22:00 +20°C° 0 mm 3 mps 761 mmHg 79%
    23:00 +20°C° 0 mm 3 mps 761 mmHg 75%

    24 August, Saturday

    Time Temperature Precipitation Wind Pressure Humidity
    00:00 +20°C° 0 mm 4 mps 761 mmHg 70%
    01:00 +20°C° 0 mm 4 mps 761 mmHg 66%
    02:00 +19°C° 0 mm 5 mps 761 mmHg 68%
    03:00 +19°C° 0 mm 5 mps 761 mmHg 70%
    04:00 +17°C° 0 mm 6 mps 761 mmHg 72%
    05:00 +19°C° 0 mm 6 mps 761 mmHg 69%
    06:00 +19°C° 0 mm 6 mps 762 mmHg 66%
    07:00 +19°C° 0 mm 6 mps 762 mmHg 63%
    08:00 +21°C° 0 mm 6 mps 763 mmHg 58%
    09:00 +23°C° 0 mm 6 mps 763 mmHg 53%
    10:00 +26°C° 0 mm 6 mps 763 mmHg 47%
    11:00 +27°C° 0 mm 6 mps 763 mmHg 46%
    12:00 +28°C° 0 mm 6 mps 763 mmHg 44%
    13:00 +28°C° 0 mm 6 mps 763 mmHg 42%
    14:00 +28°C° 0 mm 5 mps 763 mmHg 44%
    15:00 +27°C° 0 mm 4 mps 763 mmHg 45%
    16:00 +26°C° 0 mm 4 mps 762 mmHg 47%
    17:00 +24°C° 0 mm 3 mps 763 mmHg 53%
    18:00 +22°C° 0 mm 3 mps 763 mmHg 60%
    19:00 +20°C° 0 mm 2 mps 763 mmHg 66%
    20:00 +20°C° 0 mm 1 mps 763 mmHg 66%
    21:00 +20°C° 0 mm 1 mps 763 mmHg 67%
    22:00 +19°C° 0 mm 1 mps 764 mmHg 68%
    23:00 +19°C° 0 mm 1 mps 764 mmHg 68%

    25 August, Sunday

    Time Temperature Precipitation Wind Pressure Humidity
    00:00 +19°C° 0 mm 1 mps 764 mmHg 67%
    01:00 +18°C° 0 mm 2 mps 764 mmHg 67%
    02:00 +17°C° 0 mm 2 mps 764 mmHg 68%
    03:00 +17°C° 0 mm 2 mps 764 mmHg 69%
    04:00 +17°C° 0 mm 2 mps 764 mmHg 70%
    05:00 +18°C° 0 mm 2 mps 764 mmHg 70%
    06:00 +19°C° 0 mm 2 mps 765 mmHg 70%
    07:00 +20°C° 0 mm 2 mps 765 mmHg 70%
    08:00 +23°C° 0 mm 2 mps 765 mmHg 62%
    09:00 +25°C° 0 mm 3 mps 765 mmHg 55%
    10:00 +27°C° 0 mm 3 mps 766 mmHg 47%
    11:00 +27°C° 0 mm 4 mps 766 mmHg 50%
    12:00 +27°C° 0 mm 5 mps 766 mmHg 53%
    13:00 +26°C° 0 mm 6 mps 766 mmHg 57%
    14:00 +26°C° 0 mm 6 mps 766 mmHg 57%
    15:00 +26°C° 0 mm 6 mps 765 mmHg 57%
    16:00 +24°C° 0 mm 6 mps 765 mmHg 57%
    17:00 +23°C° 0 mm 6 mps 765 mmHg 65%
    18:00 +22°C° 0 mm 5 mps 765 mmHg 73%
    19:00 +20°C° 0 mm 5 mps 765 mmHg 81%
    20:00 +20°C° 0 mm 5 mps 766 mmHg 80%
    21:00 +20°C° 0 mm 6 mps 766 mmHg 80%
    22:00 +21°C° 0 mm 6 mps 766 mmHg 79%
    23:00 +20°C° 0 mm 6 mps 766 mmHg 80%

    26 August, Monday

    Time Temperature Precipitation Wind Pressure Humidity
    00:00 +20°C° 0 mm 6 mps 766 mmHg 81%
    01:00 +20°C° 0 mm 6 mps 765 mmHg 83%
    02:00 +20°C° 0.1 mm 6 mps 765 mmHg 85%
    03:00 +20°C° 0.1 mm 7 mps 765 mmHg 86%
    04:00 +20°C° 0.1 mm 7 mps 765 mmHg 88%
    05:00 +20°C° 0.1 mm 7 mps 766 mmHg 86%
    06:00 +21°C° 0.1 mm 8 mps 766 mmHg 84%
    07:00 +21°C° 0.1 mm 8 mps 766 mmHg 82%
    08:00 +22°C° 0 mm 8 mps 766 mmHg 79%
    09:00 +23°C° 0 mm 8 mps 766 mmHg 75%
    10:00 +23°C° 0 mm 8 mps 766 mmHg 72%
    11:00 +23°C° 0 mm 8 mps 766 mmHg 71%
    12:00 +24°C° 0 mm 8 mps 766 mmHg 70%
    13:00 +24°C° 0 mm 8 mps 766 mmHg 69%
    14:00 +24°C° 0 mm 8 mps 765 mmHg 71%
    15:00 +24°C° 0 mm 8 mps 765 mmHg 73%
    16:00 +23°C° 0 mm 8 mps 765 mmHg 75%
    17:00 +23°C° 0 mm 7 mps 765 mmHg 76%
    18:00 +23°C° 0 mm 7 mps 765 mmHg 77%
    19:00 +23°C° 0 mm 7 mps 765 mmHg 77%
    20:00 +23°C° 0 mm 7 mps 765 mmHg 79%
    21:00 +23°C° 0 mm 7 mps 765 mmHg 82%
    22:00 +23°C° 0 mm 7 mps 765 mmHg 84%
    23:00 +23°C° 0 mm 6 mps 765 mmHg 83%
    Show more